Flag for Canada

Past Weather in Pictou, Nova Scotia, Canada — Yesterday and Last 2 Weeks

Now
72 °F

Mild.


Feels Like: 77 °F
Forecast: 69 / 58 °F
Wind: 10 mph from Southwest

Location: Caribou Point
Current Time: Oct 1, 2020 at 5:37:22 pm
Latest Report: Oct 1, 2020 at 4:00 pm
Visibility: N/A
Pressure29.92 "Hg
Humidity: 51%
Dew Point: 53 °F
Location of PictouLocation

Past Weather in Pictou — Graph

°F

Pictou Temperature Yesterday

Maximum temperature yesterday: 77 °F (at 3:00 pm)
Minimum temperature yesterday: 67 °F (at 6:00 am)
Average temperature yesterday: 71 °F

High & Low Weather Summary for the Past Weeks

 TemperatureHumidityPressure
High79 °F (Sep 29, 2:00 pm)99% (Sep 30, 6:00 am)30.57 "Hg (Sep 30, 6:00 am)
Low42 °F (Sep 21, 7:00 am)42% (Sep 26, 2:00 pm)28.94 "Hg (Sep 23, 10:00 am)
Average61 °F76%30.00 "Hg
* Reported Sep 16 4:00 pm — Oct 1 4:00 pm, Pictou. Weather by CustomWeather, © 2020

Note: Actual official high and low records may vary slightly from our data, if they occured in-between our weather recording intervals... More about our weather records

Pictou Weather History for the Previous 24 Hours

Scroll right to see more
 ConditionsComfort  
Time TempWeatherWind HumidityBarometerVisibility
4:00 pm
Thu, Oct 1
72 °FMild.10 mph51%29.92 "HgN/A
3:00 pm70 °FMild.9 mph52%29.90 "HgN/A
2:00 pm72 °FMild.8 mph52%29.90 "HgN/A
1:00 pm72 °FMild.7 mph52%29.91 "HgN/A
12:00 pm70 °FMild.7 mph60%29.91 "HgN/A
11:00 am67 °FMild.8 mph74%29.92 "HgN/A
10:00 am63 °FMild.8 mph81%29.91 "HgN/A
9:00 am61 °FCool.8 mph83%29.90 "HgN/A
8:00 am59 °FCool.6 mph91%29.89 "HgN/A
7:00 am58 °FCool.7 mph93%29.87 "HgN/A
6:00 am59 °FCool.7 mph90%29.85 "HgN/A
5:00 am60 °FCool.5 mph86%29.83 "HgN/A
4:00 am61 °FCool.6 mph87%29.83 "HgN/A
3:00 am62 °FMild.6 mph84%29.82 "HgN/A
2:00 am64 °FMild.6 mph78%29.80 "HgN/A
1:00 am65 °FMild.6 mph83%29.78 "HgN/A
12:00 am66 °FMild.7 mph81%29.77 "HgN/A
11:00 pm
Wed, Sep 30
68 °FMild.9 mph74%29.73 "HgN/A
10:00 pm70 °FMild.8 mph86%29.71 "HgN/A
9:00 pm71 °FMild.12 mph91%29.65 "HgN/A
8:00 pm72 °FMild.16 mph89%29.63 "HgN/A
7:00 pm72 °FMild.17 mph93%29.64 "HgN/A
6:00 pm73 °FMild.18 mph90%29.66 "HgN/A
5:00 pm74 °FMild.20 mph87%29.67 "HgN/A
Weather by CustomWeather, © 2020

See weather overview